Time,TemperatureF,DewpointF,PressureIn,WindDirection,WindDirectionDegrees,WindSpeedMPH,WindSpeedGustMPH,Humidity,HourlyPrecipIn,Conditions,Clouds,dailyrainin,SolarRadiationWatts/m^2,SoftwareType,DateUTC
2013-10-15 00:03:00,64.0,61.0,-100.00,ENE,67,0.0,5.0,90,0.00,,,0.00,0.000000,,2013-10-15 05:03:00,
2013-10-15 00:13:00,64.0,61.0,-100.00,ENE,67,0.0,5.0,90,0.00,,,0.00,0.000000,,2013-10-15 05:13:00,
2013-10-15 00:42:00,62.0,60.0,-100.00,NNE,33,0.0,0.0,93,0.00,,,0.00,0.000000,,2013-10-15 05:42:00,
2013-10-15 00:53:00,62.0,60.0,-100.00,NNE,33,0.0,0.0,93,0.00,,,0.00,0.000000,,2013-10-15 05:53:00,
2013-10-15 01:02:00,62.0,60.0,-100.00,NNE,33,0.0,0.0,93,0.00,,,0.00,0.000000,,2013-10-15 06:02:00,
2013-10-15 01:12:00,62.0,60.0,-100.00,NNE,33,0.0,0.0,93,0.00,,,0.00,0.000000,,2013-10-15 06:12:00,
2013-10-15 01:43:00,62.0,61.0,-100.00,North,5,0.0,0.0,95,0.00,,,0.00,0.000000,,2013-10-15 06:43:00,
2013-10-15 01:52:00,62.0,61.0,-100.00,North,5,0.0,0.0,95,0.00,,,0.00,0.000000,,2013-10-15 06:52:00,
2013-10-15 02:02:00,62.0,61.0,-100.00,North,5,0.0,0.0,95,0.00,,,0.00,0.000000,,2013-10-15 07:02:00,
2013-10-15 02:12:00,62.0,61.0,-100.00,North,5,0.0,0.0,95,0.00,,,0.00,0.000000,,2013-10-15 07:12:00,
2013-10-15 02:42:00,61.0,60.0,-100.00,NNE,28,1.0,5.0,96,0.00,,,0.00,0.000000,,2013-10-15 07:42:00,
2013-10-15 02:53:00,61.0,60.0,-100.00,NNE,28,1.0,5.0,96,0.00,,,0.00,0.000000,,2013-10-15 07:53:00,
2013-10-15 03:02:00,61.0,60.0,-100.00,NNE,28,1.0,5.0,96,0.00,,,0.00,0.000000,,2013-10-15 08:02:00,
2013-10-15 03:12:00,61.0,60.0,-100.00,NNE,28,1.0,5.0,96,0.00,,,0.00,0.000000,,2013-10-15 08:12:00,
2013-10-15 03:42:00,61.0,60.0,-100.00,North,5,0.0,4.0,96,0.00,,,0.00,0.000000,,2013-10-15 08:42:00,
2013-10-15 03:52:00,61.0,60.0,-100.00,North,5,0.0,4.0,96,0.00,,,0.00,0.000000,,2013-10-15 08:52:00,
2013-10-15 04:02:00,61.0,60.0,-100.00,North,5,0.0,4.0,96,0.00,,,0.00,0.000000,,2013-10-15 09:02:00,
2013-10-15 04:12:00,61.0,60.0,-100.00,North,5,0.0,4.0,96,0.00,,,0.00,0.000000,,2013-10-15 09:12:00,
2013-10-15 04:43:00,61.0,60.0,-100.00,North,10,2.0,5.0,97,0.00,,,0.00,0.000000,,2013-10-15 09:43:00,
2013-10-15 04:53:00,61.0,60.0,-100.00,North,10,2.0,5.0,97,0.00,,,0.00,0.000000,,2013-10-15 09:53:00,
2013-10-15 05:03:00,61.0,60.0,-100.00,North,10,2.0,5.0,97,0.00,,,0.00,0.000000,,2013-10-15 10:03:00,
2013-10-15 05:13:00,61.0,60.0,-100.00,North,10,2.0,5.0,97,0.00,,,0.00,0.000000,,2013-10-15 10:13:00,
2013-10-15 05:43:00,60.0,59.0,-100.00,NNE,17,1.0,4.0,97,0.00,,,0.00,0.000000,,2013-10-15 10:43:00,
2013-10-15 05:53:00,60.0,59.0,-100.00,NNE,17,1.0,4.0,97,0.00,,,0.00,0.000000,,2013-10-15 10:53:00,
2013-10-15 06:02:00,60.0,59.0,-100.00,NNE,17,1.0,4.0,97,0.00,,,0.00,0.000000,,2013-10-15 11:02:00,
2013-10-15 06:11:00,60.0,59.0,-100.00,NNE,17,1.0,4.0,97,0.00,,,0.00,0.000000,,2013-10-15 11:11:00,
2013-10-15 06:42:00,60.0,59.0,-100.00,NNE,24,0.0,4.0,98,0.00,,,0.00,0.000000,,2013-10-15 11:42:00,
2013-10-15 06:53:00,60.0,59.0,-100.00,NNE,24,0.0,4.0,98,0.00,,,0.00,0.000000,,2013-10-15 11:53:00,
2013-10-15 07:01:00,60.0,59.0,-100.00,NNE,24,0.0,4.0,98,0.00,,,0.00,0.000000,,2013-10-15 12:01:00,
2013-10-15 07:12:00,60.0,59.0,-100.00,NNE,24,0.0,4.0,98,0.00,,,0.00,0.000000,,2013-10-15 12:12:00,
2013-10-15 07:42:00,60.0,59.0,-100.00,NNE,12,0.0,0.0,98,0.00,,,0.00,3.000000,,2013-10-15 12:42:00,
2013-10-15 07:52:00,60.0,59.0,-100.00,NNE,12,0.0,0.0,98,0.00,,,0.00,3.000000,,2013-10-15 12:52:00,
2013-10-15 08:02:00,60.0,59.0,-100.00,NNE,12,0.0,0.0,98,0.00,,,0.00,3.000000,,2013-10-15 13:02:00,
2013-10-15 08:11:00,60.0,59.0,-100.00,NNE,12,0.0,0.0,98,0.00,,,0.00,3.000000,,2013-10-15 13:11:00,
2013-10-15 08:42:00,63.0,62.0,-100.00,ENE,65,2.0,7.0,98,0.00,,,0.00,33.000000,,2013-10-15 13:42:00,
2013-10-15 08:52:00,63.0,62.0,-100.00,ENE,65,2.0,7.0,98,0.00,,,0.00,33.000000,,2013-10-15 13:52:00,
2013-10-15 09:02:00,63.0,62.0,-100.00,ENE,65,2.0,7.0,98,0.00,,,0.00,33.000000,,2013-10-15 14:02:00,
2013-10-15 09:12:00,63.0,62.0,-100.00,ENE,65,2.0,7.0,98,0.00,,,0.00,33.000000,,2013-10-15 14:12:00,
2013-10-15 09:42:00,67.0,63.0,-100.00,East,94,5.0,10.0,88,0.00,,,0.00,116.000000,,2013-10-15 14:42:00,
2013-10-15 09:52:00,67.0,63.0,-100.00,East,94,5.0,10.0,88,0.00,,,0.00,116.000000,,2013-10-15 14:52:00,
2013-10-15 10:02:00,67.0,63.0,-100.00,East,94,5.0,10.0,88,0.00,,,0.00,116.000000,,2013-10-15 15:02:00,
2013-10-15 10:11:00,67.0,63.0,-100.00,East,94,5.0,10.0,88,0.00,,,0.00,116.000000,,2013-10-15 15:11:00,
2013-10-15 10:44:00,69.0,64.0,-100.00,East,90,5.0,9.0,85,0.00,,,0.00,243.000000,,2013-10-15 15:44:00,
2013-10-15 10:53:00,69.0,64.0,-100.00,East,90,5.0,9.0,85,0.00,,,0.00,243.000000,,2013-10-15 15:53:00,
2013-10-15 11:03:00,69.0,64.0,-100.00,East,90,5.0,9.0,85,0.00,,,0.00,243.000000,,2013-10-15 16:03:00,
2013-10-15 11:13:00,69.0,64.0,-100.00,East,90,5.0,9.0,85,0.00,,,0.00,243.000000,,2013-10-15 16:13:00,
2013-10-15 11:43:00,69.0,64.0,-100.00,ESE,110,3.0,9.0,84,0.00,,,0.00,240.000000,,2013-10-15 16:43:00,
2013-10-15 11:53:00,69.0,64.0,-100.00,ESE,110,3.0,9.0,84,0.00,,,0.00,240.000000,,2013-10-15 16:53:00,
2013-10-15 12:02:00,69.0,64.0,-100.00,ESE,110,3.0,9.0,84,0.00,,,0.00,240.000000,,2013-10-15 17:02:00,
2013-10-15 12:12:00,69.0,64.0,-100.00,ESE,110,3.0,9.0,84,0.00,,,0.00,240.000000,,2013-10-15 17:12:00,
2013-10-15 12:42:00,72.0,64.0,-100.00,ENE,76,3.0,9.0,76,0.00,,,0.00,382.000000,,2013-10-15 17:42:00,
2013-10-15 12:53:00,72.0,64.0,-100.00,ENE,76,3.0,9.0,76,0.00,,,0.00,382.000000,,2013-10-15 17:53:00,
2013-10-15 13:02:00,72.0,64.0,-100.00,ENE,76,3.0,9.0,76,0.00,,,0.00,382.000000,,2013-10-15 18:02:00,
2013-10-15 13:12:00,72.0,64.0,-100.00,ENE,76,3.0,9.0,76,0.00,,,0.00,382.000000,,2013-10-15 18:12:00,
2013-10-15 13:42:00,78.0,66.0,-100.00,ESE,105,3.0,7.0,66,0.00,,,-99.99,695.000000,,2013-10-15 18:42:00,
2013-10-15 13:52:00,78.0,66.0,-100.00,ESE,105,3.0,7.0,66,0.00,,,-99.99,695.000000,,2013-10-15 18:52:00,
2013-10-15 14:01:00,78.0,66.0,-100.00,ESE,105,3.0,7.0,66,0.00,,,-99.99,695.000000,,2013-10-15 19:01:00,
2013-10-15 14:12:00,78.0,66.0,-100.00,ESE,105,3.0,7.0,66,0.00,,,-99.99,695.000000,,2013-10-15 19:12:00,
2013-10-15 14:42:00,77.0,64.0,-100.00,East,101,2.0,9.0,64,0.00,,,0.00,610.000000,,2013-10-15 19:42:00,
2013-10-15 14:52:00,77.0,64.0,-100.00,East,101,2.0,9.0,64,0.00,,,0.00,610.000000,,2013-10-15 19:52:00,
2013-10-15 15:03:00,77.0,64.0,-100.00,East,101,2.0,9.0,64,0.00,,,0.00,610.000000,,2013-10-15 20:03:00,
2013-10-15 15:12:00,77.0,64.0,-100.00,East,101,2.0,9.0,64,0.00,,,0.00,610.000000,,2013-10-15 20:12:00,
2013-10-15 15:42:00,78.0,64.0,-100.00,NNE,29,2.0,8.0,62,0.00,,,0.00,554.000000,,2013-10-15 20:42:00,
2013-10-15 15:52:00,78.0,64.0,-100.00,NNE,29,2.0,8.0,62,0.00,,,0.00,554.000000,,2013-10-15 20:52:00,
2013-10-15 16:02:00,78.0,64.0,-100.00,NNE,29,2.0,8.0,62,0.00,,,0.00,554.000000,,2013-10-15 21:02:00,
2013-10-15 16:13:00,78.0,64.0,-100.00,NNE,29,2.0,8.0,62,0.00,,,0.00,554.000000,,2013-10-15 21:13:00,
2013-10-15 16:44:00,76.0,62.0,-100.00,ENE,75,5.0,8.0,63,0.00,,,0.00,167.000000,,2013-10-15 21:44:00,
2013-10-15 16:54:00,76.0,62.0,-100.00,ENE,75,5.0,8.0,63,0.00,,,0.00,167.000000,,2013-10-15 21:54:00,
2013-10-15 17:04:00,76.0,62.0,-100.00,ENE,75,5.0,8.0,63,0.00,,,0.00,167.000000,,2013-10-15 22:04:00,
2013-10-15 17:13:00,76.0,62.0,-100.00,ENE,75,5.0,8.0,63,0.00,,,0.00,167.000000,,2013-10-15 22:13:00,
2013-10-15 17:43:00,75.0,64.0,-100.00,ENE,71,3.0,9.0,68,0.00,,,0.00,105.000000,,2013-10-15 22:43:00,
2013-10-15 17:53:00,75.0,64.0,-100.00,ENE,71,3.0,9.0,68,0.00,,,0.00,105.000000,,2013-10-15 22:53:00,
2013-10-15 18:03:00,75.0,64.0,-100.00,ENE,71,3.0,9.0,68,0.00,,,0.00,105.000000,,2013-10-15 23:03:00,
2013-10-15 18:12:00,75.0,64.0,-100.00,ENE,71,3.0,9.0,68,0.00,,,0.00,105.000000,,2013-10-15 23:12:00,
2013-10-15 18:43:00,70.0,63.0,-100.00,ENE,62,2.0,8.0,79,0.00,,,0.00,18.000000,,2013-10-15 23:43:00,
2013-10-15 18:52:00,70.0,63.0,-100.00,ENE,62,2.0,8.0,79,0.00,,,0.00,18.000000,,2013-10-15 23:52:00,
2013-10-15 19:01:00,70.0,63.0,-100.00,ENE,62,2.0,8.0,79,0.00,,,0.00,18.000000,,2013-10-16 00:01:00,
2013-10-15 19:12:00,70.0,63.0,-100.00,ENE,62,2.0,8.0,79,0.00,,,0.00,18.000000,,2013-10-16 00:12:00,
2013-10-15 19:42:00,67.0,63.0,-100.00,ENE,71,0.0,5.0,86,0.00,,,0.00,0.000000,,2013-10-16 00:42:00,
2013-10-15 19:52:00,67.0,63.0,-100.00,ENE,71,0.0,5.0,86,0.00,,,0.00,0.000000,,2013-10-16 00:52:00,
2013-10-15 20:02:00,67.0,63.0,-100.00,ENE,71,0.0,5.0,86,0.00,,,0.00,0.000000,,2013-10-16 01:02:00,
2013-10-15 20:11:00,67.0,63.0,-100.00,ENE,71,0.0,5.0,86,0.00,,,0.00,0.000000,,2013-10-16 01:11:00,
2013-10-15 20:42:00,65.0,62.0,-100.00,NW,320,2.0,5.0,90,0.00,,,0.00,0.000000,,2013-10-16 01:42:00,
2013-10-15 20:52:00,65.0,62.0,-100.00,NW,320,2.0,5.0,90,0.00,,,0.00,0.000000,,2013-10-16 01:52:00,
2013-10-15 21:02:00,65.0,62.0,-100.00,NW,320,2.0,5.0,90,0.00,,,0.00,0.000000,,2013-10-16 02:02:00,
2013-10-15 21:12:00,65.0,62.0,-100.00,NW,320,2.0,5.0,90,0.00,,,0.00,0.000000,,2013-10-16 02:12:00,
2013-10-15 21:42:00,64.0,62.0,-100.00,East,94,1.0,3.0,93,0.00,,,0.00,0.000000,,2013-10-16 02:42:00,
2013-10-15 21:52:00,64.0,62.0,-100.00,East,94,1.0,3.0,93,0.00,,,0.00,0.000000,,2013-10-16 02:52:00,
2013-10-15 22:02:00,64.0,62.0,-100.00,East,94,1.0,3.0,93,0.00,,,0.00,0.000000,,2013-10-16 03:02:00,
2013-10-15 22:11:00,64.0,62.0,-100.00,East,94,1.0,3.0,93,0.00,,,0.00,0.000000,,2013-10-16 03:11:00,
2013-10-15 22:45:00,63.0,61.0,-100.00,SE,125,0.0,3.0,94,0.00,,,0.00,0.000000,,2013-10-16 03:45:00,
2013-10-15 22:55:00,63.0,61.0,-100.00,SE,125,0.0,3.0,94,0.00,,,0.00,0.000000,,2013-10-16 03:55:00,
2013-10-15 23:04:00,63.0,61.0,-100.00,SE,125,0.0,3.0,94,0.00,,,0.00,0.000000,,2013-10-16 04:04:00,
2013-10-15 23:14:00,63.0,61.0,-100.00,SE,125,0.0,3.0,94,0.00,,,0.00,0.000000,,2013-10-16 04:14:00,
2013-10-15 23:44:00,62.0,61.0,-100.00,NNW,341,2.0,2.0,96,0.00,,,0.00,0.000000,,2013-10-16 04:44:00,
2013-10-15 23:54:00,62.0,61.0,-100.00,NNW,341,2.0,2.0,96,0.00,,,0.00,0.000000,,2013-10-16 04:54:00,